{"data":{"norad_id":62302,"intl_designator":"2024-239B","name":"STARLINK-32594","alt_names":[],"object_type":"PAYLOAD","status":"ACTIVE","operator":null,"country":"US","launch_date":"2024-12-13","launch_site_code":"AFWTR","launch_vehicle":null,"mission":null,"orbit_class":"UNKNOWN","rcs_meters":null,"size_class":null,"mass_kg":null,"dimensions":null,"purposes":["comms"],"wikipedia_slug":null,"has_3d_model":false,"image_url":null,"decayed_at":null,"tle_current":{"epoch":"2026-05-24T20:25:06.832128Z","epoch_age_seconds":95298,"freshness":"FRESH","line1":"1 62302U 24239B   26144.85077352  .00010525  00000+0  36694-3 0  9990","line2":"2 62302  53.1591 197.9424 0001353  89.1274 270.9882 15.30203299 81074","mean_motion":15.30203299,"eccentricity":0.0001353,"inclination_deg":53.1591,"raan_deg":197.9424,"arg_perigee_deg":89.1274,"mean_anomaly_deg":270.9882,"bstar":0.00036694,"rev_number":8107,"period_min":94.105142822594,"perigee_km":474.27796201541,"apogee_km":476.13247641993,"semimajor_km":6853.3422192177,"source":"CELESTRAK","updated_at":"2026-05-25T13:38:19.647171Z"}}}